Date String (YYYY-MM-DD hh:mm:ss) UTC,Instrument flags,Ambient pressure (hPa),Sample flow (lpm),Bypass flow (lpm),Sample temperature (°C),Ambient temperature (°C),ASC tube jacket temperature (°C),LED temperature (°C),Box temperature (°C),Sample RH (%),Span deviation,Mass concentration (μg/m³),Mass concentration (μg/m³),Mass concentration (μg/m³)
DateTimeUTC,F1_M11,P_M11,Q1_M11,Q2_M11,T1_M11,T2_M11,T3_M11,T4_M11,T5_M11,U1_M11,ZSPAN_M11,X0_M11,X2_M11,X1_M11
2021-09-23 11:00:00,,0827.7,5.01,0.00,30.5,29.6,00.0,39.6,32.2,08.2,0000.0,0006.64,0001.86,0001.14
2021-09-23 11:01:00,,0827.7,5.00,0.00,30.5,29.6,00.0,39.6,32.2,08.2,0000.0,0006.10,0001.85,0001.13
2021-09-23 11:02:00,,0827.7,5.00,0.00,30.5,29.6,00.0,39.6,32.2,08.2,0000.0,0005.76,0001.85,0001.13
2021-09-23 11:03:00,,0827.7,4.99,0.00,30.5,29.6,00.0,39.6,32.3,08.2,0000.0,0005.69,0001.84,0001.14
2021-09-23 11:04:00,,0827.7,5.00,0.00,30.5,29.6,00.0,39.6,32.3,08.2,0000.0,0006.02,0001.86,0001.15
2021-09-23 11:05:00,,0827.7,5.00,0.00,30.5,29.6,00.0,39.6,32.3,08.2,0000.0,0006.18,0001.82,0001.16
2021-09-23 11:06:00,,0827.7,5.00,0.00,30.5,29.6,00.0,39.6,32.3,08.2,0000.0,0006.61,0001.86,0001.16
2021-09-23 11:07:00,,0827.7,5.00,0.00,30.5,29.6,00.0,39.6,32.3,08.2,0000.0,0006.69,0001.84,0001.15
2021-09-23 11:08:00,,0827.7,5.00,0.00,30.5,29.6,00.0,39.6,32.3,08.3,0000.0,0006.29,0001.83,0001.15
2021-09-23 11:09:00,,0827.7,5.00,0.00,30.5,29.6,00.0,39.6,32.2,08.5,0000.0,0006.28,0001.90,0001.15
2021-09-23 11:10:00,,0827.7,5.01,0.00,30.5,29.6,00.0,39.6,32.2,08.7,0000.0,0006.75,0001.98,0001.16
2021-09-23 11:11:00,,0827.7,4.98,0.00,30.5,29.6,00.0,39.6,32.3,08.5,0000.0,0006.30,0002.04,0001.17
2021-09-23 11:12:00,,0827.7,5.00,0.00,30.5,29.6,00.0,39.6,32.3,08.4,0000.0,0006.72,0002.11,0001.18
2021-09-23 11:13:00,,0827.7,5.01,0.00,30.5,29.6,00.0,39.6,32.3,08.3,0000.0,0006.70,0002.08,0001.19
2021-09-23 11:14:00,,0827.7,4.99,0.00,30.5,29.6,00.0,39.6,32.2,08.2,0000.0,0006.83,0002.10,0001.20
2021-09-23 11:15:00,,0827.7,5.00,0.00,30.5,29.6,00.0,39.6,32.2,08.4,0000.0,0006.66,0002.10,0001.18
2021-09-23 11:16:00,,0827.8,5.01,0.00,30.5,29.5,00.0,39.6,32.2,08.6,0000.0,0006.62,0002.18,0001.19
2021-09-23 11:17:00,,0827.8,4.98,0.00,30.5,29.5,00.0,39.6,32.2,08.6,0000.0,0006.38,0002.19,0001.20
2021-09-23 11:18:00,,0827.9,5.01,0.00,30.4,29.5,00.0,39.6,32.2,08.5,0000.0,0006.41,0002.20,0001.21
2021-09-23 11:19:00,,0827.9,4.98,0.00,30.4,29.5,00.0,39.6,32.1,08.5,0000.0,0006.40,0002.23,0001.21
2021-09-23 11:20:00,,0827.9,5.01,0.00,30.5,29.5,00.0,39.6,32.2,08.5,0000.0,0006.36,0002.20,0001.22
2021-09-23 11:21:00,,0827.8,4.99,0.00,30.5,29.5,00.0,39.6,32.2,08.7,0000.0,0006.19,0002.10,0001.22
2021-09-23 11:22:00,,0827.9,4.99,0.00,30.5,29.5,00.0,39.6,32.2,08.7,0000.0,0005.46,0002.11,0001.22
2021-09-23 11:23:00,,0828.0,5.01,0.00,30.5,29.5,00.0,39.6,32.2,08.7,0000.0,0005.67,0002.17,0001.23
2021-09-23 11:24:00,,0827.9,5.00,0.00,30.5,29.5,00.0,39.6,32.2,08.7,0000.0,0005.59,0002.19,0001.23
2021-09-23 11:25:00,,0827.9,4.99,0.00,30.5,29.5,00.0,39.6,32.2,08.7,0000.0,0005.64,0002.21,0001.23
2021-09-23 11:26:00,,0827.9,5.01,0.00,30.4,29.5,00.0,39.6,32.2,08.8,0000.0,0005.85,0002.24,0001.25
2021-09-23 11:27:00,,0828.0,5.00,0.00,30.4,29.5,00.0,39.6,32.2,08.8,0000.0,0006.00,0002.25,0001.25
2021-09-23 11:28:00,,0828.0,4.99,0.00,30.4,29.5,00.0,39.6,32.2,08.9,0000.0,0006.75,0002.27,0001.27
2021-09-23 11:29:00,,0828.0,5.01,0.00,30.4,29.5,00.0,39.6,32.1,09.0,0000.0,0007.28,0002.32,0001.28
2021-09-23 11:30:00,,0828.0,4.98,0.00,30.4,29.5,00.0,39.6,32.1,09.3,0000.0,0006.91,0002.31,0001.31
2021-09-23 11:31:00,,0828.1,5.01,0.00,30.4,29.5,00.0,39.6,32.1,09.4,0000.0,0007.27,0002.37,0001.33
2021-09-23 11:32:00,,0828.1,5.00,0.00,30.4,29.6,00.0,39.6,32.1,09.5,0000.0,0008.71,0002.40,0001.34
2021-09-23 11:33:00,,0828.1,5.00,0.00,30.4,29.6,00.0,39.6,32.2,09.5,0000.0,0009.50,0002.37,0001.35
2021-09-23 11:34:00,,0828.1,4.99,0.00,30.5,29.6,00.0,39.6,32.2,09.5,0000.0,0009.41,0002.33,0001.38
2021-09-23 11:35:00,,0828.1,5.01,0.00,30.5,29.6,00.0,39.6,32.2,09.6,0000.0,0009.68,0002.35,0001.42
2021-09-23 11:36:00,,0828.1,4.99,0.00,30.5,29.6,00.0,39.6,32.1,09.6,0000.0,0009.87,0002.40,0001.45
2021-09-23 11:37:00,,0828.1,5.01,0.00,30.5,29.6,00.0,39.6,32.2,09.7,0000.0,0009.95,0002.44,0001.47
2021-09-23 11:38:00,,0828.1,4.99,0.00,30.5,29.6,00.0,39.6,32.2,09.7,0000.0,0009.76,0002.42,0001.49
2021-09-23 11:39:00,,0828.1,5.00,0.00,30.5,29.6,00.0,39.6,32.2,09.7,0000.0,0009.71,0002.44,0001.50
2021-09-23 11:40:00,,0828.1,5.00,0.00,30.5,29.6,00.0,39.6,32.2,09.8,0000.0,0009.71,0002.44,0001.52
2021-09-23 11:41:00,,0828.1,5.00,0.00,30.5,29.7,00.0,39.6,32.2,09.8,0000.0,0009.90,0002.48,0001.53
2021-09-23 11:42:00,,0828.1,5.01,0.00,30.5,29.7,00.0,39.6,32.2,09.9,0000.0,0009.69,0002.46,0001.54
2021-09-23 11:43:00,,0828.1,5.00,0.00,30.5,29.7,00.0,39.6,32.2,09.9,0000.0,0008.64,0002.46,0001.56
2021-09-23 11:44:00,,0828.1,5.00,0.00,30.5,29.7,00.0,39.6,32.2,09.9,0000.0,0007.94,0002.54,0001.57
2021-09-23 11:45:00,,0828.1,4.99,0.00,30.5,29.7,00.0,39.6,32.2,09.9,0000.0,0008.90,0002.59,0001.57
2021-09-23 11:46:00,,0828.1,5.00,0.00,30.5,29.7,00.0,39.7,32.3,09.9,0000.0,0008.66,0002.64,0001.58
2021-09-23 11:47:00,,0828.1,5.00,0.00,30.5,29.7,00.0,39.7,32.3,09.9,0000.0,0008.65,0002.65,0001.58
2021-09-23 11:48:00,,0828.1,5.01,0.00,30.6,29.7,00.0,39.7,32.3,10.2,0000.0,0008.53,0002.63,0001.58
2021-09-23 11:49:00,,0828.2,4.99,0.00,30.5,29.7,00.0,39.7,32.2,10.2,0000.0,0009.38,0002.68,0001.59
2021-09-23 11:50:00,,0828.3,5.00,0.00,30.6,29.7,00.0,39.7,32.2,10.1,0000.0,0009.49,0002.67,0001.59
2021-09-23 11:51:00,,0828.2,5.00,0.00,30.6,29.7,00.0,39.7,32.3,10.2,0000.0,0009.60,0002.72,0001.59
2021-09-23 11:52:00,,0828.2,4.99,0.00,30.6,29.7,00.0,39.7,32.3,10.3,0000.0,0010.18,0002.80,0001.60
2021-09-23 11:53:00,,0828.2,5.01,0.00,30.6,29.7,00.0,39.7,32.3,10.3,0000.0,0010.60,0002.83,0001.60
2021-09-23 11:54:00,,0828.2,4.99,0.00,30.6,29.7,00.0,39.7,32.3,10.3,0000.0,0010.30,0002.86,0001.60
2021-09-23 11:55:00,,0828.2,5.00,0.00,30.6,29.7,00.0,39.7,32.3,10.2,0000.0,0010.54,0002.78,0001.60
2021-09-23 11:56:00,,0828.3,4.99,0.00,30.6,29.7,00.0,39.7,32.3,10.2,0000.0,0009.65,0002.78,0001.60
2021-09-23 11:57:00,,0828.2,5.01,0.00,30.6,29.7,00.0,39.7,32.3,10.2,0000.0,0009.47,0002.73,0001.60
2021-09-23 11:58:00,,0828.2,5.00,0.00,30.6,29.7,00.0,39.7,32.3,10.2,0000.0,0009.37,0002.72,0001.60
2021-09-23 11:59:00,,0828.2,5.00,0.00,30.6,29.7,00.0,39.7,32.3,10.2,0000.0,0009.67,0002.73,0001.59
